Regional Weather Roundup
Issued by NWS Lake Charles, LA

Current Version | Previous Version | Text Only | Print | Product List | Glossary On
Versions: 1 2 3 4 5 6 7 8 9 10 11 12 13 14 15 16 17 18 19 20 21 22 23 24 25 26 27 28
000
ASUS44 KLCH 241310
RWRLCH
REGIONAL WEATHER ROUNDUP
NATIONAL WEATHER SERVICE LAKE CHARLES LA
800 AM CDT SUN SEP 24 2017

Note: "fair" indicates few or no clouds below 12,000 feet with no
significant weather and/or obstructions to visibility.


ACROSS SOUTHEAST TEXAS

CITY           SKY/WX    TMP DP  RH WIND       PRES   REMARKS
BEAUMONT       SUNNY     76  73  91 NE7       29.90R
BEAUMONT CITY  FAIR      75  72  90 E6        29.91S
ORANGE         SUNNY     73  73  99 E3        29.92S
JASPER           N/A     70  70  98 CALM      29.95S
$$

ACROSS CENTRAL LOUISIANA

CITY           SKY/WX    TMP DP  RH WIND       PRES   REMARKS
LEESVILLE      SUNNY     71  68  90 CALM      29.94R
FULLERTON      FAIR      71  70  96 CALM      29.92S FOG
ALEXANDRIA INT SUNNY     72  70  93 E3        29.93S FOG
ESLER FIELD    SUNNY     68  68 100 CALM      29.96R FOG
DERIDDER       FAIR      71  69  95 E3        29.96R
OAKDALE        SUNNY     69  68  96 CALM      29.94S FOG
OPELOUSAS      FAIR      70  68  93 E3        29.94S
$$

ACROSS SOUTHWEST AND SOUTH CENTRAL LOUISIANA

CITY           SKY/WX    TMP DP  RH WIND       PRES   REMARKS
SULPHUR        SUNNY     74  70  85 E7        29.92S
LAKE CHARLES   SUNNY     73  70  90 NE5       29.91S
CHENNAULT INT  NOT AVBL
CAMERON PHI      N/A     75  73  94 E9        29.90S
DEQUINCY       FAIR      71  68  90 CALM      29.93R
JENNINGS       FAIR      71  69  93 E6        29.92F
LAFAYETTE      SUNNY     72  70  93 NE5       29.94R
NEW IBERIA     SUNNY     73  67  81 NE8       29.93S
ABBEVILLE      NOT AVBL
PATTERSON      SUNNY     73  72  96 NE5       29.93S
SALT POINT       N/A     74  72  93 VRB3      29.90S
$$

SELECTED SITES ACROSS THE REGION

CITY           SKY/WX    TMP DP  RH WIND       PRES   REMARKS
HOUSTON BUSH   PTCLDY    73  72  96 NE6       29.89R
HOUSTON HOBBY  PTCLDY    77  73  87 E3        29.88R
GALVESTON      MOSUNNY   83  74  74 E9        29.89R
COLLEGE STAT   CLEAR     73  72  96 E5        29.90R FOG
CONROE         PTCLDY    71  70  96 CALM      29.91R FOG
HUNTSVILLE     CLEAR     73  69  87 CALM      29.91R FOG
LUFKIN         SUNNY     71  71 100 E5        29.92S FOG
SHREVEPORT     SUNNY     72  72 100 E3        29.95R FOG
MONROE         SUNNY     72  70  93 NE3       29.97S
NATCHEZ MS     SUNNY     69  67  93 CALM      29.98R
BATON ROUGE    SUNNY     71  66  84 NE5       29.94S
N.O. INTL ARPT MOSUNNY   79  71  76 NE12      29.93R
SLIDELL        SUNNY     72  67  84 NE5       29.94R
$$

MARINE REPORTS

STATION/POSITION TIME  SKY/WX   TEMP    WIND        PRES    VSBY
                                AIR SEA DIR/SP/G
                 (UTC)          (F)     (DEG/KT/KT) (MB)    (MI)
BUOY 30 S HIGH I NOT AVBL
SEA RIM ST PARK  1200            78      50/  6/  7 1012.5R
PORT ARTHUR      1242            78 82   80/  6/ 10 1012.8R
SABINE PASS N    1242            77 85   50/  7/ 11 1013.9R
TEXAS POINT      NOT AVBL
CALCASIEU PASS   1242            75 85   90/  7/ 10 1011.5R
LK CHARLES BEACH 1242            72 81              1012.4F
MARSH ISLAND     1200            80                   N/A
FRESH WATER LOCK 1242            77 88   50/  4/  7 1012.7R
AMERADA PASS     1242            75 83   30/  2/  5 1012.8S
$$




USA.gov is the U.S. government's official web portal to all federal, state and local government web resources and services.